Location: Unspecified
(0.0000°N, 0.0000°E)
Time: 06:35:29
(UTC+00:00)

Courier 1B Rocket - Pass Details

Date: 23 November 2019
Orbit: 920 x 1202 km, 28.2° (Epoch: 10 December)

Event Time Altitude Azimuth Distance (km) Brightness Sun altitude
Rises 19:51:21 0° 311° (NW) 4,024 8.5 -29.1°
Reaches altitude 10° 19:54:16 10° 317° (NW) 3,088 7.8 -29.7°
Enters shadow 19:59:29 39° 349° (NNW) 1,720 6.1 -30.9°
Maximum altitude 20:01:40 48° 30° (NNE) 1,525 - -31.4°
Drops below altitude 10° 20:09:07 10° 102° (ESE) 3,117 - -33.1°
Sets 20:12:04 0° 107° (ESE) 4,065 - -33.8°
